Regional Weather Roundup
Issued by NWS

Home | Current Version | Previous Version | Graphics & Text | Print | Product List | Glossary Off
Versions: 1 2 3 4 5 6 7 8 9 10 11 12 13 14 15 16 17 18 19 20 21 22 23 24 25 26 27 28 29 30 31 32 33 34 35 36 37 38 39 40 41 42 43 44 45 46 47 48 49 50

257
ASUS43 KMKX 230300
RWRWI

WISCONSIN REGIONAL WEATHER ROUNDUP
NATIONAL WEATHER SERVICE MILWAUKEE/SULLIVAN WI
1000 PM CDT TUE MAY 22 2018

NOTE: "FAIR" INDICATES FEW OR NO CLOUDS BELOW 12,000 FEET WITH NO
SIGNIFICANT WEATHER AND/OR OBSTRUCTIONS TO VISIBILITY.

WIZ001-002-006>008-014>016-023>028-230400-
NORTHWEST WISCONSIN

CITY           SKY/WX    TMP DP  RH WIND       PRES   REMARKS
SUPERIOR ARPT  FAIR      67  55  64 W6        30.02R
ASHLAND        FAIR      60  53  77 W5        30.04R
HAYWARD        FAIR      58  54  86 CALM      30.07R
SIREN          NOT AVBL
CUMBERLAND     FAIR      61  52  72 CALM      30.06S
RICE LAKE      FAIR      62  57  82 CALM      30.08R
CHETEK         FAIR      60  57  89 S3        30.07R
LADYSMITH      FAIR      62  54  74 CALM      30.08R
EAU CLAIRE     NOT AVBL
MENOMONIE      FAIR      62  56  81 SE3       30.07R
NEW RICHMOND   FAIR      63  55  73 CALM      30.06R
OSCEOLA        FAIR      61  53  75 CALM      30.07R
$$

WIZ003>005-009-010-017-018-230400-
NORTH CENTRAL WISCONSIN

CITY           SKY/WX    TMP DP  RH WIND       PRES   REMARKS
MANITOWISH WTR FAIR      58  55  89 CALM      30.06R
ARBOR VITAE    FAIR      64  55  72 CALM      30.05S
WOODRUFF       FAIR      64  55  72 CALM      30.05S
RHINELANDER    FAIR      59  55  87 W6        30.07R
EAGLE RIVER    FAIR      61  50  67 CALM      30.06R
LAND O LAKES   FAIR      55  47  74 CALM      30.08R
PHILLIPS       FAIR      64  56  75 CALM      30.06R
TOMAHAWK       MOCLDY    64  55  70 W3        30.07R
MEDFORD        FAIR      61  55  80 SW3       30.08R
MERRILL        FAIR      63  58  83 SW3       30.07R
$$

WIZ029-030-035-036-043>047-230400-
CENTRAL WISCONSIN

CITY           SKY/WX    TMP DP  RH WIND       PRES   REMARKS
WAUSAU         FAIR      63  57  81 W5        30.06R
MOSINEE        CLEAR     61  55  82 SW5       30.08R
MARSHFIELD     FAIR      59  57  93 SW6       30.08R
STEVENS POINT  FAIR      62  57  82 W6        30.08R
WAUPACA        FAIR      64  57  78 CALM      30.06R
WAUTOMA        FAIR      61  57  87 W5        30.09R
WISC RAPIDS    FAIR      59  56  89 SW5       30.09R
CAMP DOUGLAS   FAIR      57  56  98 CALM      30.09R
$$

WIZ011>013-019>022-031-037>040-048>050-230400-
NORTHEAST WISCONSIN

CITY           SKY/WX    TMP DP  RH WIND       PRES   REMARKS
ANTIGO         FAIR      62  56  82 W8        30.07R
SHAWANO        FAIR      69  57  65 SW6       30.04R
OCONTO         FAIR      65  57  77 S3        30.03R
STURGEON BAY   FAIR      60  52  74 S7        30.05R
GREEN BAY      FAIR      64  59  83 S5        30.05R
MANITOWOC      FAIR      50  48  93 CALM      30.07R
APPLETON       PTCLDY    63  55  77 SW6       30.05R
CLINTONVILLE   FAIR      66  56  68 W6        30.05R
OSHKOSH        FAIR      64  57  78 CALM      30.07R
$$

WIZ032>034-041-042-053>061-230400-
SOUTHWEST WISCONSIN

CITY           SKY/WX    TMP DP  RH WIND       PRES   REMARKS
LA CROSSE      FAIR      61  57  87 SE5       30.08R
SPARTA         CLOUDY    60  57  89 CALM      30.10R
VIROQUA        FAIR      57  57 100 NE3       30.09R
BOSCOBEL       FAIR      59  57  93 CALM      30.10R FOG
PRAIRIE DU CHI FAIR      65  58  80 CALM      30.07R
PLATTEVILLE    FAIR      62  61  96 E6        30.09R
$$

WIZ056-057-062-063-064-067-068-230400-
SOUTH CENTRAL WISCONSIN

CITY           SKY/WX    TMP DP  RH WIND       PRES   REMARKS
REEDSBURG      CLOUDY    63  59  88 CALM      30.09R
BARABOO/DELLS  FAIR      60  56  85 CALM      30.09R
LONE ROCK      NOT AVBL
MINERAL POINT  FAIR      63  61  94 E5        30.10R
MADISON        FAIR      58  57  97 CALM      30.09R
MIDDLETON      FAIR      59  57  94 CALM      30.10R
WATERTOWN      FAIR      58  58 100 CALM      30.09R
MONROE         FAIR      63  55  77 CALM      30.10R
JANESVILLE     FAIR      63  57  82 CALM      30.09R
$$

WIZ051-052-058>065-066-070>072-230400-
SOUTHEAST WISCONSIN

CITY           SKY/WX    TMP DP  RH WIND       PRES   REMARKS
MILWAUKEE      FAIR      58  52  80 CALM      30.09R
WAUKESHA       FAIR      55  54  94 SW5       30.10R
MILWAUKEE/TIMM FAIR      59  52  77 CALM      30.09R
RACINE         FAIR      50  49  96 S3        30.11R
BURLINGTON     FAIR      58  55  90 CALM      30.10R
KENOSHA        FAIR      53  50  89 CALM      30.09R
FOND DU LAC    FAIR      61  57  87 SW5       30.08R
SHEBOYGAN      FAIR      57  55  93 SW3       30.07R
WEST BEND      FAIR      59  57  94 W3        30.08R
JUNEAU         FAIR      60  57  89 CALM      30.10R
$$

LSZ147-162-230400-
LAKE SUPERIOR

STATION/POSITION TIME  TEMP    WIND        PRES    WAVE
                       AIR SEA DIR/SP/G            HT/PER
                 (UTC) (F)     (DEG/KT/KT) (MB)    (FT/S)
W MID LAKE BUOY  0150   43 36  140/  2/  2 1016.6R   0
DEVILS ISLAND    0200   70     190/  5/  5 1016.0R
SAXON HARBOR     0240   61     190/  3/  4 1016.3R
$$

LMZ867-665-643>646-230400-
LAKE MICHIGAN

STATION/POSITION TIME  TEMP    WIND        PRES    WAVE
                       AIR SEA DIR/SP/G            HT/PER
                 (UTC) (F)     (DEG/KT/KT) (MB)    (FT/S)
N MID LAKE BUOY  0240   41 37  200/  4/  6 1017.3R
NORTHPORT PIER   0240   58     180/  2/  4 1016.9R
KEWAUNEE LAKESHO 0230   53     180/  3/  4 1016.8R
SHEBOYGAN LAKESH 0200   57     200/  5/  5 1017.7R
PORT WASHINGTON  0240   52     200/  2/  3 1019.3R
ATWATER BUOY     0207   49 48  180/  6/  8 1018.6    0
MILWAUKEE LAKESH 0230   50     170/  4/  4   N/A
KENOSHA   LAKESH 0200   51                 1018.3
$$

TC  - TEMPERATURE IN CELSIUS
VSB - VISIBILITY IN STATUTE MILES
WCI - WIND CHILL INDEX
HX  - HEAT INDEX





USA.gov is the U.S. government's official web portal to all federal, state and local government web resources and services.